PROFILE

 METAR AND TAF INFORMATION
ADDS - METARS form results

(0541 UTC 26 January 2021)
http://aviationweather.gov/metar/data/
 
LFBD 260530Z AUTO 11005KT CAVOK M01/M02 Q1023 TEMPO 0800 FG
LFBD 260500Z AUTO 09004KT CAVOK M00/M01 Q1024 TEMPO 0800 FG
TAF LFBD 260500Z 2606/2712 09005KT CAVOK TX12/2708Z TNM01/2606Z PROB30 TEMPO 2606/2607 VRB02KT 0800 FG BECMG 2612/2614 14010KT BECMG 2614/2616 OVC035 BECMG 2617/2619 OVC014 TEMPO 2620/2712 3000 -DZRA OVC006 PROB40 2623/2712 1000 RADZ OVC004 

 AIRPORT MAP

 RUNWAY INFORMATION
Runway 05 Runway length 10171 ft Runway width 148 ft
Runway elevation 160 ft Runway displaced threshold 0 ft Runway heading 46
Runway 23 Runway length 10171 ft Runway width 148 ft
Runway elevation 151 ft Runway displaced threshold 0 ft Runway heading 226
Runway 11 Runway length 7923 ft Runway width 148 ft
Runway elevation 153 ft Runway displaced threshold 0 ft Runway heading 107
Runway 29 Runway length 7923 ft Runway width 148 ft
Runway elevation 160 ft Runway displaced threshold 0 ft Runway heading 287

 AIRPORT FREQUENCIES
Type APP Name AQUITAINE Frequency 118.6 MHZ
Type ARR Name APP Frequency 121.2 MHZ
Type ATIS Name ATIS Frequency 131.15 MHZ
Type GND Name GND Frequency 121.9 MHZ
Type INFO Name AQUITAINE Frequency 120.575 MHZ
Type OPS Name OPNS Frequency 143.175 MHZ
Type TWR Name TWR Frequency 118.3 MHZ

 AIRPORT NEAR NAVIGATION AIDS
Type NDB Name Bordeaux Frequency 393 KHZ
Type TACAN Name Bordeaux Frequency 114400 KHZ
Type NDB Name Bordeaux Frequency 318 KHZ
Type VOR-DME Name Bordeaux Frequency 113750 KHZ
Type NDB Name Bordeaux Frequency 361 KHZ